Location: Lane
(33.5226°N, 79.8788°W)
Time: 10:47:16
(UTC+00:00)

Altair - Pass Details

Date: 12 October 2022
Orbit: 1501 x 1682 km, 47.2° (Epoch: 30 November)

Event Time Altitude Azimuth Distance (km) Brightness Sun altitude
Rises 10:48:10 0° 290° (WNW) 4,774 - -7.8°
Exits shadow 10:50:09 - 294° (WNW) 4,212 9.2 -7.4°
Reaches altitude 10° 10:51:37 10° 299° (WNW) 3,817 9.0 -7.1°
Maximum altitude 11:00:27 37° 4° (N) 2,374 8.5 -5.3°
Drops below altitude 10° 11:09:33 10° 68° (ENE) 3,927 10.8 -3.4°
Sets 11:13:09 0° 77° (ENE) 4,926 11.8 -2.7°
